[[{"header":{"parameterUnit":"m.s-1","parameterCategory":1,"la1":30.2991,"la2":30.254,"lo1":-89.0895,"lo2":-89.0444,"dy":0.0017,"dx":0.0017,"nx":28,"ny":28,"refTime":"2024-07-24T21:00:00:Z","depth":0,"parameterNumber":2,"parameterNumberName":"U-component_of_WINDS"},"data":[0,0,0,0,0,0,0,0,0,0,0,0,0,0,0,0,0,0,0,0,0,0,0,0,0,0,0,0,0,0,0,0,0,0,0,0,0,0,0,0,0,0,0,0,0,0,0,0,0,0,0,0,0,0,0,0,0,0,1.4984,1.4985,0,1.5024,1.5025,1.5025,1.5019,1.5018,1.5017,1.5017,1.5062,1.5063,1.5065,0,0,0,0,0,0,0,0,0,0,0,0,0,1.4906,1.4907,1.4984,1.4985,1.4985,1.5024,1.5025,1.5025,1.5019,1.5018,1.5017,1.5016,1.5061,1.5063,1.5065,0,0,0,0,0,0,0,0,0,0,0,0,0,1.4942,1.4907,1.4984,1.4987,1.4987,1.5024,1.5025,1.5025,1.5019,1.5018,1.5017,1.5016,1.506,1.5063,1.5066,1.5104,0,0,1.5074,1.5075,0,0,0,0,0,0,0,0,1.494,1.4945,1.4986,1.4987,1.4987,1.5015,1.5013,1.5052,1.5019,1.5007,1.5017,1.5016,1.5047,1.5051,1.5061,1.5106,1.5108,1.5074,1.5076,1.5077,1.5078,0,0,0,0,0,0,0,1.4937,1.4943,1.5,1.4987,1.4988,1.4987,1.4991,1.5021,1.5033,1.5008,1.5008,1.5012,1.5048,1.5058,1.5062,1.5108,1.5074,1.5077,1.5078,1.5079,1.5184,1.5185,0,0,0,0,0,0,1.4934,1.4941,1.4999,1.5001,1.4961,1.4989,1.4994,1.5008,1.5032,1.5035,1.5013,1.5012,1.5054,1.5059,1.5064,1.5108,1.5077,1.508,1.5081,1.5183,1.5184,1.5186,0,0,0,0,0,0,1.4932,1.4939,1.4997,1.4971,1.4979,1.4991,1.5007,1.5009,1.502,1.5036,1.5039,1.5022,1.5053,1.506,1.5093,1.511,1.5081,1.5083,1.5182,1.5183,1.5185,1.5199,0,0,0,0,0,0,1.493,1.4938,1.4952,1.4972,1.498,1.5025,1.5008,1.501,1.5024,1.5023,1.5045,1.5048,1.5053,1.5089,1.5096,1.5113,1.5086,1.518,1.5182,1.5184,1.5197,1.52,1.5204,0,0,0,0,0,1.4927,1.4956,1.4953,1.496,1.4998,1.5026,1.5031,1.5036,1.5025,1.504,1.505,1.5047,1.5107,1.5092,1.51,1.5118,1.5179,1.5182,1.5184,1.5195,1.52,1.5204,0,0,0,0,0,0,1.4941,1.4959,1.4956,1.4992,1.5007,1.5025,1.5044,1.5041,1.5061,1.5059,1.5066,1.5071,1.5104,1.5115,1.5098,1.5155,1.5142,1.5146,1.5147,1.5152,1.5155,1.5152,1.5088,0,0,0,0,0,1.4947,1.4968,1.4983,1.5013,1.5021,1.5031,1.5044,1.5046,1.5063,1.507,1.5083,1.5101,1.5123,1.5138,1.516,1.5198,1.5202,1.5214,1.5218,1.5221,1.5224,1.5244,1.5249,1.5194,1.5194,1.5194,0,0,1.4962,1.4975,1.4988,1.5016,1.5029,1.5051,1.5037,1.5061,1.5078,1.5074,1.5106,1.5116,1.5136,1.5171,1.5187,1.5181,1.524,1.5224,1.5226,1.5228,1.5247,1.5252,1.5257,1.5196,1.5195,1.5195,0,0,1.5,1.5012,1.5037,1.505,1.5068,1.5074,1.508,1.5098,1.5104,1.5135,1.5132,1.5153,1.5192,1.5206,1.5218,1.5259,1.5257,1.5266,1.5285,1.5304,1.5308,1.5312,1.5326,1.5331,1.527,1.527,1.527,0,1.5017,1.5049,1.5051,1.5075,1.5088,1.5083,1.5109,1.5122,1.5147,1.5156,1.5148,1.5195,1.5209,1.5246,1.5256,1.5266,1.5273,1.5264,1.5307,1.5311,1.5315,1.5328,1.5333,1.5271,1.5271,1.527,1.527,0,1.5068,1.509,1.5108,1.513,1.5145,1.517,1.5177,1.5191,1.5192,1.5199,1.523,1.5245,1.527,1.5279,1.528,1.5316,1.5312,1.5305,1.5292,1.5321,1.5333,1.5338,1.5272,1.5272,1.5271,1.5271,0,0,1.5116,1.5138,1.5145,1.5154,1.5173,1.5191,1.5215,1.5237,1.5249,1.5266,1.5287,1.5319,1.5312,1.5326,1.5329,1.5346,1.5375,1.5337,1.5338,1.5343,1.5415,1.5419,1.5425,1.5374,1.5375,1.5376,1.5413,0,1.5155,1.5197,1.5199,1.5238,1.5258,1.5253,1.5275,1.5289,1.5296,1.5314,1.5322,1.5344,1.5335,1.5343,1.5359,1.5368,1.539,1.5366,1.5393,1.5394,1.5388,1.5432,1.5437,1.5471,1.5418,1.5419,1.5419,0,1.5207,1.5223,1.5263,1.5277,1.5286,1.5305,1.5324,1.5342,1.5358,1.5362,1.5376,1.5376,1.5401,1.5386,1.542,1.5404,1.5415,1.5421,1.5423,1.5425,1.5408,1.5435,1.5482,1.5487,1.5427,1.5427,1.5426,0,1.5237,1.5269,1.5297,1.5305,1.5323,1.5336,1.5344,1.5359,1.5371,1.5389,1.5397,1.5417,1.5429,1.5445,1.545,1.5439,1.5484,1.547,1.5488,1.5488,1.5498,1.5497,1.5547,1.5506,1.5506,1.5506,1.5506,0,1.528,1.5304,1.531,1.5327,1.5354,1.5356,1.5383,1.5391,1.5403,1.5422,1.542,1.5438,1.5444,1.5463,1.5467,1.5494,1.55,1.5504,1.5505,1.5504,1.5503,1.5511,1.5508,1.5507,1.5507,1.5507,1.5506,0,1.5319,1.5323,1.5353,1.5367,1.5371,1.539,1.5402,1.5418,1.5424,1.5447,1.5453,1.5462,1.5484,1.549,1.5517,1.552,1.5552,1.5551,1.5546,1.5546,1.5563,1.5561,1.562,1.5627,1.5582,1.5582,1.5583,0,1.5345,1.5364,1.5379,1.539,1.5398,1.5417,1.5429,1.5432,1.5445,1.5463,1.5477,1.5498,1.5515,1.555,1.5559,1.558,1.5579,1.5598,1.5582,1.558,1.5578,1.5576,1.5578,1.5601,1.5601,1.5602,1.5602,0,1.5392,1.5393,1.541,1.5428,1.5441,1.5456,1.5469,1.5479,1.5484,1.5499,1.552,1.5533,1.5558,1.5579,1.5599,1.5608,1.5606,1.5607,1.5612,1.5611,1.5607,1.5608,1.5553,1.5606,1.5605,1.5605,1.5605,1.5605,1.5425,1.5441,1.5453,1.5472,1.5482,1.5494,1.5509,1.5516,1.5533,1.5554,1.5555,1.5577,1.5591,1.5618,1.5628,1.5646,1.564,1.5648,1.565,1.5651,1.5652,1.5604,1.565,1.5649,1.5649,1.5649,1.5649,0,1.5471,1.5479,1.5495,1.5514,1.5528,1.5523,1.5537,1.555,1.5569,1.5582,1.5598,1.5622,1.5641,1.5652,1.5671,1.5683,1.5683,1.5688,1.5687,1.5689,1.5656,1.565,1.5688,1.5688,1.5688,1.5688,1.5688,1.5688,1.5497,1.5522,1.5524,1.5554,1.5562,1.5583,1.5591,1.5602,1.5612,1.5638,1.5654,1.566,1.5672,1.5692,1.5709,1.5712,1.5719,1.5725,1.5727,1.5696,1.5692,1.5688,1.5682,1.5726,1.5727,1.5758,1.5758,1.5758]},{"header":{"parameterUnit":"m.s-1","parameterCategory":1,"la1":30.2991,"la2":30.254,"lo1":-89.0895,"lo2":-89.0444,"dy":0.0017,"dx":0.0017,"nx":28,"ny":28,"refTime":"2024-07-24T21:00:00:Z","depth":0,"parameterNumber":3,"parameterNumberName":"V-component_of_WINDS"},"data":[0,0,0,0,0,0,0,0,0,0,0,0,0,0,0,0,0,0,0,0,0,0,0,0,0,0,0,0,0,0,0,0,0,0,0,0,0,0,0,0,0,0,0,0,0,0,0,0,0,0,0,0,0,0,0,0,0,0,2.6899,2.6899,0,2.6889,2.6889,2.6889,2.6933,2.6935,2.6936,2.6937,2.692,2.6918,2.6916,0,0,0,0,0,0,0,0,0,0,0,0,0,2.6951,2.6949,2.6899,2.6899,2.6899,2.6889,2.6889,2.6889,2.6933,2.6935,2.6936,2.6938,2.692,2.6918,2.6916,0,0,0,0,0,0,0,0,0,0,0,0,0,2.6933,2.6949,2.6899,2.692,2.6922,2.6889,2.6889,2.6889,2.6933,2.6935,2.6937,2.6939,2.6921,2.6918,2.6916,2.686,0,0,2.6908,2.6907,0,0,0,0,0,0,0,0,2.6934,2.6931,2.6917,2.6919,2.6921,2.6915,2.69,2.6879,2.6932,2.6928,2.6937,2.694,2.6916,2.6914,2.6907,2.6859,2.6859,2.6908,2.6906,2.6905,2.6904,0,0,0,0,0,0,0,2.6935,2.6932,2.6895,2.6917,2.6919,2.6928,2.6927,2.6897,2.6911,2.6929,2.6932,2.6931,2.6917,2.691,2.6907,2.6858,2.6908,2.6906,2.6904,2.6903,2.6761,2.6759,0,0,0,0,0,0,2.6934,2.6932,2.6895,2.6895,2.6932,2.6925,2.6925,2.6914,2.6911,2.6913,2.6929,2.6933,2.6913,2.691,2.6907,2.6839,2.6905,2.6903,2.6901,2.6764,2.6761,2.6758,0,0,0,0,0,0,2.6935,2.6931,2.6896,2.6914,2.6911,2.6922,2.691,2.6913,2.6906,2.6912,2.6914,2.6919,2.6914,2.691,2.6871,2.6839,2.6902,2.6899,2.6766,2.6763,2.676,2.6705,0,0,0,0,0,0,2.6937,2.6931,2.6911,2.6914,2.691,2.6862,2.6908,2.6911,2.6902,2.6907,2.6903,2.6904,2.6916,2.6875,2.6869,2.6837,2.6897,2.6769,2.6765,2.6761,2.671,2.6701,2.6693,0,0,0,0,0,2.6938,2.6895,2.691,2.6905,2.6886,2.6861,2.6858,2.6874,2.6899,2.6879,2.6882,2.6904,2.6845,2.6871,2.6864,2.6831,2.6771,2.6766,2.6761,2.6714,2.6702,2.6693,0,0,0,0,0,0,2.6887,2.6896,2.6913,2.687,2.6864,2.6868,2.6843,2.6862,2.6847,2.6852,2.6871,2.687,2.6827,2.6825,2.6854,2.6776,2.6812,2.6805,2.6778,2.6767,2.6759,2.6759,2.6895,0,0,0,0,0,2.6871,2.6852,2.686,2.6821,2.6818,2.6831,2.682,2.6834,2.6828,2.6825,2.6826,2.6817,2.6796,2.6782,2.6763,2.6711,2.6709,2.6685,2.6676,2.6669,2.6662,2.6631,2.662,2.6742,2.6742,2.6742,0,0,2.6837,2.684,2.6826,2.6811,2.6809,2.6786,2.6828,2.6803,2.6785,2.682,2.6784,2.6784,2.6775,2.6729,2.6708,2.6726,2.6628,2.6662,2.6657,2.6654,2.6625,2.6613,2.6603,2.6739,2.6739,2.674,0,0,2.6763,2.6764,2.6731,2.6728,2.6724,2.6733,2.6725,2.6726,2.6728,2.6692,2.6718,2.6696,2.6661,2.6653,2.6644,2.6567,2.6585,2.656,2.6514,2.6484,2.6474,2.6465,2.6435,2.6425,2.6554,2.6554,2.6554,0,2.672,2.6689,2.6711,2.6684,2.6675,2.6709,2.6674,2.6669,2.6658,2.665,2.6671,2.6627,2.6623,2.6574,2.6555,2.6548,2.6537,2.656,2.6474,2.6466,2.6458,2.6429,2.6418,2.6551,2.6551,2.6551,2.6552,0,2.6636,2.6614,2.6587,2.6578,2.6567,2.6536,2.6551,2.6536,2.6551,2.6556,2.6517,2.6515,2.6496,2.6485,2.6498,2.6437,2.6448,2.6472,2.6507,2.6443,2.6416,2.6406,2.6546,2.6547,2.6548,2.6549,0,0,2.6527,2.6532,2.6521,2.6517,2.6515,2.6497,2.6467,2.645,2.6436,2.6427,2.64,2.6369,2.6391,2.6381,2.6393,2.6367,2.6303,2.6393,2.6393,2.6374,2.6232,2.6213,2.62,2.6316,2.6314,2.6313,2.6232,0,2.6453,2.6404,2.6422,2.637,2.6348,2.638,2.6353,2.6347,2.6352,2.6332,2.6336,2.6313,2.6344,2.6338,2.6314,2.6316,2.6274,2.6322,2.6288,2.6286,2.6287,2.6187,2.6167,2.609,2.6222,2.622,2.6219,0,2.636,2.6349,2.6295,2.6296,2.6288,2.6264,2.6249,2.6231,2.6224,2.6229,2.6218,2.6236,2.6203,2.6241,2.6195,2.6227,2.6214,2.6213,2.621,2.6205,2.6247,2.6177,2.6067,2.6054,2.6203,2.6205,2.6206,0,2.6283,2.6255,2.6219,2.6215,2.6216,2.6197,2.6196,2.6193,2.6181,2.6167,2.6159,2.6141,2.613,2.6115,2.6126,2.6153,2.6076,2.6116,2.6076,2.6076,2.6057,2.6057,2.5941,2.6053,2.6053,2.6053,2.6053,0,2.6196,2.6161,2.6185,2.6162,2.6123,2.6144,2.6104,2.6106,2.6102,2.6078,2.6104,2.6081,2.6098,2.6075,2.6084,2.6042,2.6038,2.6038,2.604,2.6035,2.6034,2.6024,2.6029,2.605,2.6051,2.6051,2.6052,0,2.6103,2.6118,2.608,2.6084,2.6085,2.6055,2.6058,2.6036,2.6043,2.6012,2.6006,2.6015,2.599,2.6001,2.5973,2.5978,2.5924,2.5935,2.5927,2.5929,2.5888,2.589,2.5759,2.5741,2.5867,2.5866,2.5865,0,2.6045,2.602,2.6022,2.6009,2.6007,2.5986,2.5975,2.5994,2.598,2.5971,2.5949,2.5926,2.5909,2.5866,2.5869,2.5847,2.5855,2.5811,2.5852,2.5846,2.5851,2.5852,2.5848,2.5801,2.58,2.5799,2.5798,0,2.5941,2.595,2.5934,2.592,2.5906,2.5895,2.5886,2.5874,2.5893,2.5876,2.5851,2.5838,2.5811,2.5786,2.5767,2.5763,2.5782,2.5785,2.5775,2.5767,2.5763,2.5762,2.5902,2.5788,2.5789,2.5789,2.579,2.579,2.5862,2.584,2.5838,2.5819,2.5815,2.5806,2.5785,2.579,2.5771,2.5752,2.5764,2.5734,2.5726,2.5703,2.5696,2.5671,2.5688,2.5674,2.5669,2.5665,2.5658,2.5769,2.5668,2.5669,2.5669,2.5669,2.5669,0,2.5757,2.5758,2.574,2.5728,2.5712,2.5735,2.5726,2.571,2.5685,2.5678,2.5661,2.5631,2.5608,2.5609,2.5587,2.5566,2.5574,2.556,2.556,2.5558,2.5645,2.5656,2.5554,2.5554,2.5554,2.5554,2.5554,2.5554,2.57,2.5663,2.5671,2.5632,2.5632,2.5606,2.5598,2.5589,2.5583,2.555,2.5532,2.5534,2.5529,2.5507,2.5485,2.5486,2.5475,2.5456,2.546,2.5541,2.5552,2.5563,2.5573,2.5455,2.5455,2.5374,2.5374,2.5373]}]]